Location: Bouchavesnes-Bergen
(49.9859°N, 2.9203°E)
Time: 02:58:48
(UTC+00:00)

Envisat - Pass Details

Date: 03 February 2023
Orbit: 763 x 765 km, 98.2° (Epoch: 30 March)

Event Time Altitude Azimuth Distance (km) Brightness Sun altitude
Rises 05:40:39 0° 3° (N) 3,247 6.2 -16.0°
Reaches altitude 10° 05:43:36 10° 346° (NNW) 2,316 5.3 -15.6°
Enters shadow 05:46:36 18° 310° (NW) 1,804 4.4 -15.1°
